Regional Weather Roundup
Issued by NWS

Home | Current Version | Previous Version | Graphics & Text | Print | Product List | Glossary On
Versions: 1 2 3 4 5 6 7 8 9 10 11 12 13 14 15 16 17 18 19 20 21 22 23 24 25 26 27 28 29 30 31 32 33 34 35 36 37 38 39 40 41 42 43 44 45 46 47 48 49 50
000
ASUS43 KLMK 241110
RWRKY
KENTUCKY REGIONAL WEATHER ROUNDUP
NATIONAL WEATHER SERVICE LOUISVILLE KY
700 AM EDT FRI OCT 24 2014

NOTE "FAIR" INDICATES FEW OR NO CLOUDS BELOW 12,000 FEET
WITH NO SIGNIFICANT WEATHER AND/OR OBSTRUCTIONS TO VISIBILITY.

KYZ001>023-026-027-061>063-070>075-241200-
WESTERN AND SOUTH CENTRAL KENTUCKY

CITY           SKY/WX    TMP DP  RH WIND       PRES   REMARKS
PADUCAH        PTCLDY    41  40  96 CALM      30.13R FOG
HENDERSON      CLOUDY   N/A N/A N/A SW5       30.13R
OWENSBORO      CLOUDY    44  43  97 CALM      30.13S
HOPKINSVILLE   CLEAR     44  44 100 CALM      30.12S
BOWLING GREEN  CLEAR     45  42  89 CALM      30.13S
GLASGOW        PTCLDY    43  43 100 CALM      30.13R FOG
$$

KYZ024-025-028>034-038-045-046-053-241200-
NORTH CENTRAL KENTUCKY

CITY           SKY/WX    TMP DP  RH WIND       PRES   REMARKS
LOUISVILLE/SDF PTCLDY    44  41  89 SE7       30.14R
LOUISVILLE/LOU CLEAR     42  40  92 CALM      30.14R
FORT KNOX      CLEAR     38  37  97 CALM      30.12R
$$

KYZ035>037-039>044-047>052-055>060-089>105-241200-
NORTHEAST KENTUCKY

CITY           SKY/WX    TMP DP  RH WIND       PRES   REMARKS
LEXINGTON      MOCLDY    43  39  86 CALM      30.13S
COVINGTON      MOCLDY    42  39  89 CALM      30.12R
FRANKFORT      PTCLDY    40  38  93 CALM      30.13R FOG
$$

KYZ054-064>069-076>088-106>120-241200-
SOUTHEAST KENTUCKY

CITY           SKY/WX    TMP DP  RH WIND       PRES   REMARKS
JACKSON        MOCLDY    43  40  89 CALM      30.12S
LONDON         CLOUDY    44  40  85 CALM      30.13R
SOMERSET       MOCLDY    43  43 100 CALM      30.15S
MIDDLESBORO    FOG       41  41 100 CALM      30.15R VSB 1/2
MONTICELLO     CLOUDY    44  44 100 CALM      30.15R FOG
$$




USA.gov is the U.S. government's official web portal to all federal, state and local government web resources and services.